Regional Weather Roundup
Issued by NWS Sioux Falls, SD

Home | Current Version | Previous Version | Graphics & Text | Print | Product List | Glossary Off
Versions: 1 2 3 4 5 6 7 8 9 10 11 12 13 14 15 16 17 18 19 20 21 22 23 24 25 26 27 28 29 30 31 32 33 34 35 36 37 38 39 40 41 42 43 44 45 46 47 48 49 50

000
ASUS43 KFSD 162110
RWRFSD

WEATHER ROUNDUP FOR SE SOUTH DAKOTA/SW MINNESOTA/NW IOWA
NATIONAL WEATHER SERVICE SIOUX FALLS SD
300 PM CST TUE JAN 16 2018

NOTE: "FAIR" INDICATES FEW OR NO CLOUDS BELOW 12,000 FEET WITH NO
SIGNIFICANT WEATHER AND OR OBSTRUCTIONS TO VISIBILITY.


SDZ038>040-050-052>070-162200-
SOUTHEAST SOUTH DAKOTA

CITY           SKY/WX    TMP DP  RH WIND       PRES   REMARKS
BROOKINGS      SUNNY      9   1  70 W6        30.61F WCI  -1
CHAMBERLAIN    SUNNY     12   0  57 S6        30.60F WCI   3
HURON          SUNNY      8  -1  66 S6        30.64F WCI  -2
MADISON        FAIR       3   0  85 W10       30.60F WCI -12
MITCHELL       SUNNY      6  -2  69 SW7       30.67F WCI  -6
SIOUX FALLS    SUNNY      6  -1  73 W6        30.65F WCI  -4
WINNER         FAIR      15   2  56 S12       30.55F WCI   2
YANKTON        SUNNY      9   0  67 W8        30.69F WCI  -3
$$

MNZ071-072-080-081-089-090-097-098-162200-
SOUTHWEST MINNESOTA

CITY           SKY/WX    TMP DP  RH WIND       PRES   REMARKS
FAIRMONT       SUNNY      4  -3  73 W12       30.65  WCI -12
JACKSON        SUNNY      5   0  78 W9        30.61S WCI  -9
LUVERNE        SUNNY      5  -2  72 W8        30.65F WCI  -8
MARSHALL       SUNNY      6  -2  69 NW7       30.65F WCI  -6
MONTEVIDEO     SUNNY      9  -2  61 N5        30.65F WCI   0
PIPESTONE      SUNNY      3  -2  78 W8        30.60S WCI -10
REDWOOD FALLS  SUNNY      2  -5  72 W10       30.65F WCI -14
WINDOM         SUNNY      5  -9  51 W8        30.62S WCI  -8
WORTHINGTON    SUNNY      6  -1  73 W10       30.62S WCI  -9
$$

IAZ001>003-012>014-020>022-031-032-NEZ013-014-SDZ071-162200-
NORTHWEST IOWA

CITY           SKY/WX    TMP DP  RH WIND       PRES   REMARKS
CHEROKEE       SUNNY      7   0  73 W9        30.67F WCI  -6
DENISON        MOSUNNY    5   0  78 NW10      30.69F WCI -10
ESTHERVILLE    SUNNY      4  -1  80 W12       30.63F WCI -12
LE MARS        SUNNY      7   0  72 NW8       30.68F WCI  -6
ORANGE CITY    SUNNY      7   1  78 NW10      30.64F WCI  -8
SHELDON        MOSUNNY    5   0  78 W10       30.63F WCI -10
SIOUX CITY     SUNNY      8   1  73 NW9       30.70F WCI  -5
SPENCER        SUNNY      8   0  69 W14       30.64F WCI  -8
STORM LAKE     SUNNY      5   0  78 NW13      30.63F WCI -12
$$

ABBREVIATIONS USED IN REMARKS
   TC - TEMPERATURE IN CELSIUS
  WCI - WIND CHILL INDEX
   HX - HEAT INDEX
  VSB - VISIBILITY





USA.gov is the U.S. government's official web portal to all federal, state and local government web resources and services.